[[{"header":{"parameterUnit":"m.s-1","parameterCategory":1,"la1":30.2991,"la2":30.254,"lo1":-89.0895,"lo2":-89.0444,"dy":0.0017,"dx":0.0017,"nx":28,"ny":28,"refTime":"2024-05-24T09:00:00:Z","depth":0,"parameterNumber":2,"parameterNumberName":"U-component_of_WINDS"},"data":[0,0,0,0,0,0,0,0,0,0,0,0,0,0,0,0,0,0,0,0,0,0,0,0,0,0,0,0,0,0,0,0,0,0,0,0,0,0,0,0,0,0,0,0,0,0,0,0,0,0,0,0,0,0,0,0,0,0,2.4761,2.4762,0,2.4884,2.4885,2.4886,2.4903,2.4902,2.4901,2.49,2.5027,2.5031,2.5036,0,0,0,0,0,0,0,0,0,0,0,0,0,2.4541,2.4545,2.4761,2.4762,2.4764,2.4883,2.4885,2.4887,2.4903,2.4902,2.49,2.4899,2.5025,2.5031,2.5036,0,0,0,0,0,0,0,0,0,0,0,0,0,2.4647,2.4546,2.4761,2.4786,2.479,2.4883,2.4885,2.4887,2.4903,2.4902,2.49,2.4898,2.5024,2.503,2.5037,2.5113,0,0,2.5057,2.506,0,0,0,0,0,0,0,0,2.4641,2.4655,2.4781,2.4785,2.4789,2.4876,2.4854,2.4963,2.4904,2.486,2.49,2.4897,2.4978,2.4989,2.5015,2.5119,2.5125,2.5058,2.5062,2.5065,2.5067,0,0,0,0,0,0,0,2.4634,2.465,2.4809,2.4783,2.4788,2.4792,2.4805,2.4875,2.4928,2.4864,2.4866,2.488,2.498,2.5009,2.5019,2.5126,2.5058,2.5064,2.5068,2.507,2.5297,2.5299,0,0,0,0,0,0,2.4621,2.4644,2.4806,2.4813,2.4709,2.4797,2.4812,2.485,2.4927,2.4937,2.4881,2.488,2.4998,2.5011,2.5023,2.5116,2.5065,2.5071,2.5075,2.5295,2.5298,2.53,0,0,0,0,0,0,2.4617,2.4636,2.4801,2.4729,2.475,2.4803,2.4845,2.4853,2.4882,2.494,2.4949,2.4901,2.4997,2.5014,2.509,2.5121,2.5074,2.508,2.5293,2.5296,2.5299,2.5304,0,0,0,0,0,0,2.461,2.4634,2.4663,2.4729,2.4754,2.4865,2.4847,2.4857,2.4894,2.4893,2.4961,2.4971,2.4997,2.508,2.5097,2.5129,2.5085,2.529,2.5294,2.5298,2.5301,2.5307,2.5312,0,0,0,0,0,2.4602,2.4661,2.4665,2.4684,2.4792,2.4867,2.4881,2.4911,2.4896,2.4926,2.4963,2.4968,2.5115,2.5088,2.5107,2.5142,2.5289,2.5293,2.5297,2.5299,2.5306,2.5311,0,0,0,0,0,0,2.4598,2.467,2.4675,2.4757,2.4806,2.487,2.4909,2.4917,2.4971,2.4969,2.5003,2.5019,2.5093,2.5125,2.5094,2.5219,2.52,2.5209,2.5195,2.5202,2.5207,2.5197,2.5091,0,0,0,0,0,2.4606,2.4661,2.4721,2.4787,2.4811,2.4856,2.489,2.4908,2.496,2.4981,2.5023,2.5074,2.5131,2.5169,2.5225,2.5306,2.5321,2.534,2.5345,2.5349,2.5355,2.5399,2.5408,2.5315,2.5315,2.5314,0,0,2.4625,2.4671,2.4703,2.4788,2.4828,2.4883,2.4873,2.4933,2.4975,2.499,2.5064,2.5097,2.5156,2.5235,2.5272,2.5264,2.5384,2.5354,2.5357,2.5362,2.5405,2.5414,2.5421,2.5318,2.5317,2.5317,0,0,2.4686,2.4727,2.4785,2.4825,2.4885,2.4914,2.4928,2.4991,2.5013,2.5088,2.51,2.5151,2.5249,2.529,2.5324,2.5399,2.5406,2.5416,2.5443,2.5485,2.5493,2.5499,2.5525,2.5534,2.5423,2.5423,2.5423,0,2.4701,2.4785,2.4815,2.4874,2.491,2.4926,2.4985,2.5022,2.5098,2.5123,2.5113,2.5236,2.5277,2.5364,2.5382,2.541,2.5426,2.5409,2.5489,2.5496,2.5503,2.5528,2.5537,2.5424,2.5424,2.5424,2.5424,0,2.48,2.4858,2.4898,2.497,2.5011,2.507,2.5108,2.5146,2.516,2.519,2.5265,2.5315,2.538,2.5403,2.5418,2.5492,2.5485,2.5482,2.5464,2.5512,2.5536,2.5546,2.5425,2.5425,2.5425,2.5424,0,0,2.4862,2.4948,2.4962,2.4994,2.5061,2.5107,2.5166,2.5229,2.5261,2.5312,2.5362,2.5445,2.5441,2.548,2.55,2.5537,2.5591,2.5529,2.5531,2.5538,2.5675,2.5676,2.5687,2.5597,2.5598,2.56,2.567,0,2.493,2.5035,2.5063,2.5153,2.5206,2.5221,2.5273,2.5319,2.5349,2.5398,2.5431,2.5488,2.548,2.5503,2.5541,2.5577,2.5619,2.5572,2.5643,2.5645,2.5627,2.57,2.5702,2.5765,2.5679,2.5681,2.5682,0,2.5024,2.5076,2.517,2.5229,2.5252,2.5298,2.5357,2.5405,2.5458,2.5476,2.5518,2.5534,2.5596,2.5575,2.5661,2.5628,2.5658,2.568,2.5684,2.5691,2.5666,2.5707,2.5786,2.5795,2.5697,2.5696,2.5695,0,2.5058,2.5152,2.522,2.5247,2.5318,2.5349,2.538,2.5431,2.5467,2.5519,2.5542,2.5602,2.5634,2.5679,2.5711,2.5693,2.5793,2.5775,2.581,2.5809,2.583,2.5828,2.5913,2.5851,2.5851,2.5851,2.585,0,2.513,2.5187,2.5236,2.5278,2.5342,2.5373,2.5435,2.5467,2.5512,2.556,2.5577,2.5622,2.5661,2.5711,2.5737,2.5803,2.5818,2.5834,2.584,2.5832,2.583,2.5852,2.5848,2.5853,2.5853,2.5852,2.5852,0,2.5179,2.5214,2.5289,2.5349,2.5366,2.541,2.5461,2.5502,2.5532,2.5592,2.5608,2.5655,2.5714,2.575,2.5826,2.5843,2.5916,2.592,2.5897,2.59,2.5932,2.5928,2.6034,2.6048,2.5978,2.5978,2.5979,0,2.5222,2.5266,2.533,2.5363,2.5394,2.5448,2.5484,2.5516,2.5553,2.5616,2.5649,2.571,2.576,2.5854,2.5895,2.5953,2.5958,2.5991,2.5967,2.5957,2.5957,2.5954,2.5958,2.5995,2.5996,2.5996,2.5996,0,2.5295,2.531,2.5361,2.5418,2.546,2.5507,2.5554,2.558,2.562,2.5661,2.5721,2.576,2.5837,2.5896,2.5957,2.5989,2.5999,2.6004,2.6015,2.6006,2.5991,2.5998,2.5907,2.6001,2.6001,2.6,2.6,2.6,2.5342,2.5381,2.5431,2.5488,2.5526,2.5568,2.5609,2.5643,2.5694,2.5758,2.5774,2.5838,2.5889,2.5971,2.6005,2.6055,2.605,2.6066,2.607,2.6073,2.6073,2.5983,2.6066,2.6066,2.6066,2.6066,2.6066,0,2.5414,2.5447,2.5498,2.5562,2.5606,2.5611,2.5662,2.5699,2.5754,2.58,2.5849,2.5918,2.5975,2.602,2.6079,2.611,2.6116,2.6125,2.6122,2.6129,2.6075,2.6059,2.6119,2.6119,2.6119,2.6119,2.6119,2.6119,2.5457,2.5522,2.5543,2.5627,2.5661,2.5722,2.575,2.579,2.5827,2.5903,2.595,2.5978,2.6024,2.6086,2.6139,2.6151,2.6171,2.6178,2.6191,2.6139,2.6133,2.6128,2.6113,2.6183,2.6183,2.6241,2.6241,2.6242]},{"header":{"parameterUnit":"m.s-1","parameterCategory":1,"la1":30.2991,"la2":30.254,"lo1":-89.0895,"lo2":-89.0444,"dy":0.0017,"dx":0.0017,"nx":28,"ny":28,"refTime":"2024-05-24T09:00:00:Z","depth":0,"parameterNumber":3,"parameterNumberName":"V-component_of_WINDS"},"data":[0,0,0,0,0,0,0,0,0,0,0,0,0,0,0,0,0,0,0,0,0,0,0,0,0,0,0,0,0,0,0,0,0,0,0,0,0,0,0,0,0,0,0,0,0,0,0,0,0,0,0,0,0,0,0,0,0,0,3.8548,3.8549,0,3.8653,3.8655,3.8656,3.8631,3.8629,3.8627,3.8625,3.8729,3.8733,3.8738,0,0,0,0,0,0,0,0,0,0,0,0,0,3.8322,3.8326,3.8548,3.855,3.8551,3.8653,3.8655,3.8656,3.8631,3.8629,3.8626,3.8624,3.8727,3.8733,3.8738,0,0,0,0,0,0,0,0,0,0,0,0,0,3.8423,3.8327,3.8548,3.8551,3.8552,3.8653,3.8655,3.8656,3.8632,3.8629,3.8626,3.8623,3.8726,3.8732,3.8739,3.8843,0,0,3.876,3.8763,0,0,0,0,0,0,0,0,3.8417,3.8431,3.8549,3.8551,3.8552,3.8626,3.8613,3.8719,3.8632,3.8601,3.8625,3.8621,3.8697,3.8706,3.8732,3.8847,3.8852,3.8761,3.8765,3.8768,3.877,0,0,0,0,0,0,0,3.841,3.8426,3.859,3.8551,3.8553,3.8545,3.8557,3.8633,3.8665,3.8604,3.8602,3.8615,3.8697,3.8726,3.8734,3.8853,3.8761,3.8767,3.8771,3.8774,3.9058,3.9061,0,0,0,0,0,0,3.8402,3.8421,3.8586,3.8593,3.8476,3.8552,3.8564,3.8605,3.8664,3.867,3.8618,3.8614,3.8715,3.8726,3.8738,3.8863,3.8768,3.8775,3.8779,3.9054,3.9058,3.9062,0,0,0,0,0,0,3.8397,3.8417,3.8582,3.8506,3.8527,3.8559,3.8605,3.8609,3.8637,3.8674,3.8679,3.8641,3.8713,3.8728,3.8817,3.8866,3.8778,3.8784,3.905,3.9056,3.906,3.9113,0,0,0,0,0,0,3.8391,3.8416,3.8456,3.8508,3.8531,3.8661,3.8608,3.8613,3.865,3.8646,3.8698,3.8703,3.8712,3.8807,3.8824,3.8874,3.879,3.9046,3.9053,3.9059,3.9107,3.9119,3.913,0,0,0,0,0,3.8383,3.8466,3.8459,3.8479,3.8583,3.8664,3.8677,3.8686,3.8654,3.8695,3.8718,3.8702,3.8858,3.8816,3.8835,3.8888,3.9043,3.9051,3.9058,3.9102,3.9117,3.913,0,0,0,0,0,0,3.8419,3.8473,3.8465,3.8568,3.8611,3.8659,3.8711,3.8702,3.8754,3.8748,3.8756,3.8768,3.8858,3.8882,3.8834,3.8991,3.8946,3.8957,3.8972,3.8987,3.8998,3.8991,3.8795,0,0,0,0,0,3.8439,3.8501,3.8545,3.8631,3.8653,3.8678,3.8714,3.8717,3.8762,3.878,3.881,3.8853,3.8912,3.8951,3.9007,3.911,3.9121,3.9156,3.9167,3.9176,3.9186,3.9242,3.9258,3.9087,3.9087,3.9087,0,0,3.8481,3.8518,3.8557,3.8639,3.8673,3.8737,3.8694,3.8763,3.8809,3.879,3.8876,3.89,3.8948,3.9045,3.9089,3.9067,3.9236,3.9186,3.9193,3.9198,3.9252,3.9268,3.9282,3.9092,3.9091,3.909,0,0,3.8589,3.8624,3.87,3.8735,3.8788,3.8804,3.8822,3.8871,3.8886,3.8973,3.896,3.9014,3.9115,3.915,3.9181,3.9302,3.9289,3.932,3.938,3.9434,3.9448,3.946,3.9503,3.9518,3.933,3.933,3.933,0,3.8634,3.873,3.8739,3.881,3.8846,3.8832,3.8908,3.8942,3.9009,3.9034,3.9009,3.9135,3.9167,3.9272,3.9301,3.9327,3.9347,3.9315,3.9445,3.9457,3.9469,3.951,3.9526,3.9334,3.9333,3.9333,3.9333,0,3.8783,3.885,3.8904,3.8971,3.9014,3.9086,3.9105,3.9146,3.9146,3.9164,3.9251,3.9289,3.9352,3.9377,3.9376,3.9481,3.9466,3.9443,3.9398,3.9488,3.9527,3.9543,3.9339,3.9337,3.9336,3.9336,0,0,3.8918,3.8989,3.9009,3.9039,3.9096,3.9147,3.9218,3.9281,3.9316,3.9363,3.9422,3.9508,3.9487,3.9522,3.9525,3.9573,3.9666,3.9544,3.9545,3.9566,3.9784,3.9801,3.9819,3.9658,3.9661,3.9663,3.978,0,3.9032,3.916,3.9169,3.9284,3.9345,3.9332,3.9394,3.9435,3.9453,3.9507,3.9526,3.9587,3.9555,3.9576,3.9623,3.9645,3.971,3.9637,3.9712,3.9715,3.9701,3.9839,3.9858,3.9966,3.9795,3.9797,3.9799,0,3.9182,3.9235,3.9356,3.9404,3.9429,3.9485,3.9544,3.9595,3.964,3.965,3.969,3.9686,3.9758,3.971,3.9808,3.9758,3.9789,3.9805,3.9809,3.9817,3.9763,3.9851,4.0001,4.0018,3.9823,3.9821,3.9819,0,3.9269,3.9369,3.9455,3.9481,3.9539,3.9578,3.9604,3.9646,3.9683,3.9733,3.9757,3.9815,3.9846,3.989,3.9902,3.9866,4.0,3.9953,4.001,4.0009,4.0039,4.0037,4.0196,4.0058,4.0058,4.0058,4.0057,0,3.9395,3.947,3.9495,3.9547,3.963,3.9639,3.972,3.9743,3.9781,3.9837,3.9829,3.9881,3.9893,3.9947,3.9956,4.0036,4.005,4.0059,4.0061,4.0061,4.006,4.0082,4.0074,4.0062,4.0061,4.006,4.006,0,3.9506,3.9526,3.9619,3.9666,3.9679,3.9738,3.9778,3.9828,3.9844,3.9915,3.9932,3.9959,4.0022,4.0038,4.0112,4.0118,4.0213,4.0207,4.0199,4.0198,4.0254,4.0249,4.0434,4.0459,4.0304,4.0305,4.0307,0,3.9586,3.9644,3.9697,3.9735,3.9762,3.9822,3.986,3.9871,3.9911,3.9966,4.0009,4.0072,4.0122,4.0224,4.0249,4.0306,4.0302,4.0362,4.031,4.0308,4.0303,4.0299,4.0305,4.0372,4.0374,4.0375,4.0376,0,3.9726,3.9733,3.9789,3.9848,3.9894,3.9941,3.9985,4.0016,4.0033,4.0077,4.0143,4.0182,4.0259,4.0321,4.0378,4.0403,4.0393,4.0393,4.0409,4.0409,4.0402,4.0407,4.0226,4.0389,4.0387,4.0386,4.0386,4.0385,3.9824,3.9874,3.992,3.9982,4.0017,4.0059,4.0108,4.0132,4.0187,4.0251,4.0253,4.0324,4.0367,4.0443,4.0471,4.0526,4.0507,4.053,4.0536,4.0542,4.0547,4.0393,4.0536,4.0536,4.0535,4.0535,4.0535,0,3.9964,3.9992,4.005,4.0113,4.0162,4.0148,4.0197,4.0238,4.0301,4.0342,4.0392,4.0467,4.0526,4.0556,4.0615,4.0653,4.0649,4.0668,4.0665,4.0671,4.056,4.0541,4.067,4.0669,4.0669,4.0669,4.0669,4.0669,4.0042,4.0126,4.0138,4.0239,4.0267,4.0337,4.0366,4.0404,4.0437,4.0521,4.0571,4.059,4.0627,4.0688,4.0742,4.0749,4.0771,4.0792,4.0796,4.0693,4.0679,4.0666,4.0647,4.0796,4.0797,4.0902,4.0903,4.0904]}]]